EW0608 Weather Reports


Display with metric or nautical units.
time (UTC)temp
F
wind
direction
speed
MPH
gust
MPH
rain 1hr
in
rain 24hr
in
rain mn
in
humidity
%
barometer
mb
20260901190347 93 77 2.0 8.0 0.00 0.00 0.00 54 1015.6
20260901190043 93 153 3.0 8.0 0.00 0.00 0.00 53 1014.4
20260901185835 93 158 3.0 6.0 0.00 0.00 0.00 54 1015.9
20260901185349 94 41 2.0 7.0 0.00 0.00 0.00 51 1015.9
20260901184845 94 88 3.0 9.0 0.00 0.00 0.00 52 1015.9
20260901184537 94 156 3.0 9.0 0.00 0.00 0.00 51 1014.6
20260901184338 94 232 3.0 9.0 0.00 0.00 0.00 53 1016.0
20260901183851 94 143 4.0 8.0 0.00 0.00 0.00 51 1016.0
20260901183343 95 119 3.0 6.0 0.00 0.00 0.00 51 1015.9
20260901183041 95 65 2.0 6.0 0.00 0.00 0.00 52 1014.6
20260901182836 95 106 2.0 6.0 0.00 0.00 0.00 52 1016.0
20260901182349 95 248 2.0 6.0 0.00 0.00 0.00 51 1016.2
20260901181842 95 101 3.0 7.0 0.00 0.00 0.00 53 1016.2
20260901181557 94 135 3.0 7.0 0.00 0.00 0.00 51 1014.9
20260901181356 95 330 1.0 6.0 0.00 0.00 0.00 54 1016.3
20260901180847 94 334 3.0 6.0 0.00 0.00 0.00 54 1016.3
20260901180402 93 80 1.0 6.0 0.00 0.00 0.00 56 1016.3
20260901180051 93 80 2.0 6.0 0.00 0.00 0.00 56 1015.0
20260901175850 93 196 1.0 5.0 0.00 0.00 0.00 56 1016.4
20260901175343 93 35 2.0 8.0 0.00 0.00 0.00 54 1016.2
20260901174834 92 245 2.0 10.0 0.00 0.00 0.00 56 1016.3
20260901174559 91 227 3.0 10.0 0.00 0.00 0.00 56 1014.9
20260901174348 91 121 3.0 10.0 0.00 0.00 0.00 57 1016.4
20260901173840 92 56 2.0 5.0 0.00 0.00 0.00 59 1016.4
20260901173334 93 68 2.0 5.0 0.00 0.00 0.00 57 1016.2
20260901173008 93 82 2.0 7.0 0.00 0.00 0.00 58 1014.8
20260901172907 94 167 2.0 7.0 0.00 0.00 0.00 58 1016.1
20260901172339 93 113 3.0 7.0 0.00 0.00 0.00 58 1016.1
20260901171851 92 144 3.0 7.0 0.00 0.00 0.00 59 1016.1
20260901171549 92 126 2.0 7.0 0.00 0.00 0.00 60 1014.7
20260901171344 92 154 3.0 7.0 0.00 0.00 0.00 61 1016.1
20260901170838 91 41 2.0 7.0 0.00 0.00 0.00 63 1016.2
20260901170350 90 56 2.0 3.0 0.00 0.00 0.00 62 1016.3
20260901170122 90 48 0.0 3.0 0.00 0.00 0.00 64 1015.0
20260901165840 90 48 2.0 3.0 0.00 0.00 0.00 64 1016.3
20260901165353 89 197 2.0 7.0 0.00 0.00 0.00 65 1016.3
20260901164846 89 230 1.0 7.0 0.00 0.00 0.00 66 1016.5
20260901164545 88 195 3.0 7.0 0.00 0.00 0.00 64 1015.2
20260901164344 89 234 2.0 7.0 0.00 0.00 0.00 64 1016.5
20260901163837 89 108 3.0 7.0 0.00 0.00 0.00 65 1016.5
20260901163347 89 75 3.0 7.0 0.00 0.00 0.00 64 1016.6
20260901163041 89 184 2.0 5.0 0.00 0.00 0.00 66 1015.4
20260901162840 89 131 2.0 5.0 0.00 0.00 0.00 65 1016.8
20260901162353 89 217 3.0 5.0 0.00 0.00 0.00 66 1016.7
20260901161845 88 265 1.0 4.0 0.00 0.00 0.00 65 1016.6
20260901161546 88 158 2.0 4.0 0.00 0.00 0.00 65 1015.3
20260901161339 88 84 2.0 3.0 0.00 0.00 0.00 67 1016.6
20260901160851 88 118 1.0 7.0 0.00 0.00 0.00 67 1016.6
20260901160404 88 195 4.0 7.0 0.00 0.00 0.00 65 1016.8
20260901160054 88 300 3.0 7.0 0.00 0.00 0.00 66 1015.4
20260901155853 88 82 1.0 8.0 0.00 0.00 0.00 67 1016.8
20260901155346 88 232 3.0 8.0 0.00 0.00 0.00 67 1017.0
20260901154839 87 215 4.0 6.0 0.00 0.00 0.00 67 1016.9
20260901154512 87 88 1.0 5.0 0.00 0.00 0.00 68 1015.6
20260901154411 87 140 1.0 5.0 0.00 0.00 0.00 69 1016.8
20260901153842 86 155 2.0 5.0 0.00 0.00 0.00 71 1016.8
20260901153058 85 115 1.0 5.0 0.00 0.00 0.00 73 1015.6
20260901152837 85 245 2.0 5.0 0.00 0.00 0.00 72 1017.0
20260901152412 85 167 2.0 5.0 0.00 0.00 0.00 74 1016.9
20260901151920 85 80 327.0 327.0 0.00 0.00 0.00 72 1016.5
20260901151557 85 104 1.0 5.0 0.00 0.00 0.00 73 1015.6
20260901150052 84 189 3.0 7.0 0.00 0.00 0.00 75 1015.7
20260901144551 82 171 1.0 3.0 0.00 0.00 0.00 81 1015.7
20260901143049 80 182 0.0 3.0 0.00 0.00 0.00 85 1015.9
20260901141545 80 242 0.0 0.0 0.00 0.00 0.00 85 1016.0
20260901140040 77 242 0.0 0.0 0.00 0.00 0.00 88 1016.1
20260901134537 76 242 0.0 2.0 0.00 0.00 0.00 89 1016.3
20260901133038 72 171 0.0 2.0 0.00 0.00 0.00 95 1016.5
20260901131540 70 171 0.0 0.0 0.00 0.00 0.00 95 1016.6
20260901130034 70 171 0.0 0.0 0.00 0.00 0.00 95 1016.7
20260901124532 69 171 0.0 0.0 0.00 0.00 0.00 95 1016.7
20260901123039 69 171 0.0 0.0 0.00 0.00 0.00 95 1016.8
20260901121533 69 171 0.0 0.0 0.00 0.00 0.00 95 1016.8
20260901120030 69 171 0.0 0.0 0.00 0.00 0.00 95 1016.8
20260901114528 68 170 0.0 0.0 0.00 0.00 0.00 95 1016.8
20260901113029 68 171 0.0 0.0 0.00 0.00 0.00 95 1016.6
20260901111528 68 171 0.0 0.0 0.00 0.00 0.00 95 1016.5
20260901110026 68 171 0.0 0.0 0.00 0.00 0.00 95 1016.3
20260901104529 68 171 0.0 0.0 0.00 0.00 0.00 95 1016.2
20260901103025 69 171 0.0 0.0 0.00 0.00 0.00 95 1016.1
20260901101524 69 171 0.0 0.0 0.00 0.00 0.00 95 1016.1
20260901100027 69 171 0.0 0.0 0.00 0.00 0.00 95 1016.1
20260901094523 69 171 0.0 0.0 0.00 0.00 0.00 95 1016.2
20260901093022 69 171 0.0 0.0 0.00 0.00 0.00 95 1016.1
20260901091522 69 170 0.0 0.0 0.00 0.00 0.00 95 1016.0
20260901090031 69 170 0.0 0.0 0.00 0.00 0.00 94 1016.0
20260901084520 69 171 0.0 0.0 0.00 0.00 0.00 94 1016.0
20260901083030 69 171 0.0 0.0 0.00 0.00 0.00 94 1016.1
20260901081520 69 171 0.0 0.0 0.00 0.00 0.00 94 1016.2
20260901080017 69 171 0.0 0.0 0.00 0.00 0.00 94 1016.1
20260901074525 69 171 0.0 0.0 0.00 0.00 0.00 94 1016.2
20260901073028 69 171 0.0 0.0 0.00 0.00 0.00 94 1016.3
20260901071514 69 171 0.0 0.0 0.00 0.00 0.00 94 1016.2
20260901070021 69 170 0.0 0.0 0.00 0.00 0.00 94 1016.2
20260901065412 70 171 0.0 0.0 0.00 0.00 0.00 94 1017.4
20260901064843 70 171 0.0 0.0 0.00 0.00 0.00 94 1017.5
20260901064539 69 171 0.0 0.0 0.00 0.00 0.00 94 1016.4
20260901064336 70 171 0.0 0.0 0.00 0.00 0.00 94 1017.5
20260901063850 70 171 0.0 0.0 0.00 0.00 0.00 94 1017.5
20260901063038 70 171 0.0 0.0 0.00 0.00 0.00 94 1016.4
20260901062837 70 171 0.0 0.0 0.00 0.00 0.00 94 1017.6
20260901062349 70 171 0.0 0.0 0.00 0.00 0.00 94 1017.6
20260901061514 70 171 0.0 0.0 0.00 0.00 0.00 94 1016.5
20260901061411 70 171 0.0 0.0 0.00 0.00 0.00 94 1017.7
20260901060341 70 171 0.0 0.0 0.00 0.00 0.00 94 1017.9
20260901060051 70 171 0.0 0.0 0.00 0.00 0.00 94 1016.7
20260901055849 71 171 0.0 0.0 0.00 0.00 0.00 94 1017.9
20260901055342 71 171 0.0 0.0 0.00 0.00 0.00 94 1017.9
20260901054838 71 171 0.0 0.0 0.00 0.00 0.00 94 1018.0
20260901054552 70 170 0.0 0.0 0.00 0.00 0.00 94 1016.8
20260901054351 71 171 0.0 0.0 0.00 0.00 0.00 94 1018.0
20260901053843 71 171 0.0 0.0 0.00 0.00 0.00 94 1018.0
20260901053336 71 171 0.0 0.0 0.00 0.00 0.00 94 1018.0
20260901053117 70 171 0.0 0.0 0.00 0.00 0.00 94 1016.9
20260901052850 71 171 0.0 0.0 0.00 0.00 0.00 94 1018.1
20260901052343 71 171 0.0 0.0 0.00 0.00 0.00 94 1018.1
20260901051836 71 171 0.0 0.0 0.00 0.00 0.00 94 1018.2
20260901051548 71 171 0.0 0.0 0.00 0.00 0.00 94 1016.9
20260901051348 71 171 0.0 0.0 0.00 0.00 0.00 94 1018.1
20260901050842 71 171 0.0 0.0 0.00 0.00 0.00 94 1018.2
20260901050355 71 171 0.0 0.0 0.00 0.00 0.00 94 1018.2
20260901050051 71 171 0.0 0.0 0.00 0.00 0.00 94 1016.9
20260901045844 71 171 0.0 0.0 0.00 0.00 0.00 94 1018.1
20260901045337 72 171 0.0 0.0 0.00 0.00 0.00 94 1018.1
20260901044910 72 171 0.0 0.0 0.00 0.00 0.00 94 1018.1
20260901044542 71 171 0.0 0.0 0.00 0.00 0.00 94 1016.9
20260901044342 72 171 0.0 0.0 0.00 0.00 0.00 94 1018.1
20260901043836 72 171 0.0 0.0 0.00 0.00 0.00 94 1018.2
20260901043347 72 171 0.0 0.0 0.00 0.00 0.00 94 1018.1
20260901043041 71 171 0.0 0.0 0.00 0.00 0.00 94 1016.9
20260901042841 72 171 0.0 0.0 0.00 0.00 0.00 94 1018.1
20260901042354 72 171 0.0 0.0 0.00 0.00 0.00 94 1018.1
20260901041847 72 171 0.0 0.0 0.00 0.00 0.00 94 1018.1
20260901041539 71 171 0.0 0.0 0.00 0.00 0.00 94 1016.9
20260901041338 72 171 0.0 0.0 0.00 0.00 0.00 94 1018.2
20260901040851 72 171 0.0 0.0 0.00 0.00 0.00 94 1018.2
20260901040405 72 171 0.0 0.0 0.00 0.00 0.00 94 1018.3
20260901040052 72 171 0.0 0.0 0.00 0.00 0.00 94 1017.1
20260901035851 72 170 0.0 0.0 0.00 0.00 0.00 94 1018.4
20260901035343 72 171 0.0 0.0 0.00 0.00 0.00 94 1018.4
20260901034840 72 170 0.0 0.0 0.00 0.00 0.00 94 1018.4
20260901034555 72 171 0.0 0.0 0.00 0.00 0.00 94 1017.2
20260901034353 72 171 0.0 0.0 0.00 0.00 0.00 94 1018.4
20260901033905 72 171 0.0 0.0 0.00 0.00 0.00 94 1018.5
20260901033357 72 171 0.0 0.0 0.00 0.00 0.00 94 1018.5
20260901033055 72 171 0.0 0.0 0.00 0.00 0.00 94 1017.3
20260901032849 72 171 0.0 0.0 0.00 0.00 0.00 94 1018.5
20260901032401 72 170 0.0 0.0 0.00 0.00 0.00 94 1018.5
20260901031853 72 171 0.0 1.0 0.00 0.00 0.00 94 1018.6
20260901031605 72 171 0.0 1.0 0.00 0.00 0.00 94 1017.4
20260901031345 72 171 0.0 1.0 0.00 0.00 0.00 94 1018.6
20260901030837 73 171 0.0 0.0 0.00 0.00 0.00 94 1018.7
20260901030411 73 171 0.0 0.0 0.00 0.00 0.00 93 1018.7
20260901030040 72 171 0.0 0.0 0.00 0.00 0.00 93 1017.4
20260901025839 73 171 0.0 0.0 0.00 0.00 0.00 93 1018.7
20260901025353 73 171 0.0 0.0 0.00 0.00 0.00 93 1018.8
20260901024846 73 171 0.0 0.0 0.00 0.00 0.00 93 1018.8
20260901024541 72 171 0.0 0.0 0.00 0.00 0.00 93 1017.5
20260901023851 73 171 0.0 0.0 0.00 0.00 0.00 93 1018.7
20260901023345 73 171 0.0 0.0 0.00 0.00 0.00 93 1018.7
20260901023042 73 171 0.0 0.0 0.00 0.00 0.00 93 1017.5
20260901022839 73 171 0.0 0.0 0.00 0.00 0.00 93 1018.7
20260901022351 73 171 0.0 0.0 0.00 0.00 0.00 93 1018.8
20260901021904 73 171 0.0 0.0 0.00 0.00 0.00 93 1018.7
20260901021536 73 170 0.0 0.0 0.00 0.00 0.00 93 1017.5
20260901021336 73 170 0.0 0.0 0.00 0.00 0.00 93 1018.7
20260901020849 73 171 0.0 0.0 0.00 0.00 0.00 93 1018.8
20260901020343 74 171 0.0 0.0 0.00 0.00 0.00 93 1018.8
20260901020052 73 171 0.0 0.0 0.00 0.00 0.00 93 1017.5
20260901015850 74 171 0.0 0.0 0.00 0.00 0.00 93 1018.8
20260901015342 74 171 0.0 0.0 0.00 0.00 0.00 93 1018.7
20260901014836 74 171 0.0 0.0 0.00 0.00 0.00 93 1018.6
20260901014551 74 171 0.0 0.0 0.00 0.00 0.00 93 1017.3
20260901014350 74 171 0.0 0.0 0.00 0.00 0.00 92 1018.6
20260901013843 74 171 0.0 1.0 0.00 0.00 0.00 93 1018.6
20260901013354 74 171 0.0 1.0 0.00 0.00 0.00 92 1018.4
20260901013051 74 171 0.0 0.0 0.00 0.00 0.00 92 1017.1
20260901012848 75 171 0.0 0.0 0.00 0.00 0.00 92 1018.4
20260901012401 75 171 0.0 0.0 0.00 0.00 0.00 92 1018.4
20260901011913 75 171 0.0 0.0 0.00 0.00 0.00 92 1018.2
20260901011506 75 171 0.0 0.0 0.00 0.00 0.00 92 1016.9
20260901011405 75 171 0.0 0.0 0.00 0.00 0.00 92 1018.1
20260901010836 75 171 0.0 0.0 0.00 0.00 0.00 92 1018.0
20260901010410 76 171 0.0 0.0 0.00 0.00 0.00 92 1017.9
20260901010040 75 171 0.0 0.0 0.00 0.00 0.00 92 1016.6
20260901005838 76 171 0.0 0.0 0.00 0.00 0.00 92 1017.8
20260901005351 76 171 0.0 0.0 0.00 0.00 0.00 92 1017.7
20260901004847 76 171 0.0 0.0 0.00 0.00 0.00 92 1017.7
20260901004539 76 171 0.0 0.0 0.00 0.00 0.00 92 1016.5
20260901004339 76 171 0.0 0.0 0.00 0.00 0.00 91 1017.7
20260901003852 76 171 0.0 0.0 0.00 0.00 0.00 92 1017.3
20260901003024 76 171 0.0 0.0 0.00 0.00 0.00 91 1016.2
20260901002349 77 171 0.0 0.0 0.00 0.00 0.00 91 1017.5
20260901001843 77 171 0.0 0.0 0.00 0.00 0.00 91 1017.5
20260901001540 77 171 0.0 0.0 0.00 0.00 0.00 91 1016.3
20260901001339 77 171 0.0 0.0 0.00 0.00 0.00 91 1017.5
20260901000852 78 171 0.0 0.0 0.00 0.00 0.00 91 1017.6
20260901000406 78 171 0.0 0.0 0.00 0.00 0.00 91 1017.7
20260901000053 77 171 0.0 0.0 0.00 0.00 0.00 91 1016.4
20260831235853 78 171 0.0 0.0 0.00 0.00 0.00 91 1017.6
20260831235347 78 171 0.0 0.0 0.00 0.00 0.00 91 1017.7
20260831234841 78 171 0.0 0.0 0.00 0.00 0.00 91 1017.7
20260831234555 78 171 0.0 0.0 0.00 0.00 0.00 91 1016.4
20260831234353 78 171 0.0 0.0 0.00 0.00 0.00 91 1017.6
20260831233844 79 171 0.0 0.0 0.00 0.00 0.00 91 1017.6
20260831233338 79 171 0.0 0.0 0.00 0.00 0.00 91 1017.6
20260831233014 78 171 0.0 0.0 0.00 0.00 0.00 91 1016.4
20260831232910 79 171 0.0 0.0 0.00 0.00 0.00 91 1017.7
20260831232343 79 171 0.0 0.0 0.00 0.00 0.00 91 1017.7
20260831231837 79 171 0.0 0.0 0.00 0.00 0.00 91 1017.6
20260831231555 78 171 0.0 0.0 0.00 0.00 0.00 91 1016.4
20260831231350 79 171 0.0 0.0 0.00 0.00 0.00 91 1017.7
20260831230842 78 171 0.0 0.0 0.00 0.00 0.00 91 1017.7
20260831230355 78 171 0.0 0.0 0.00 0.00 0.00 91 1017.7
20260831230101 78 170 0.0 0.0 0.00 0.00 0.00 91 1016.5
20260831225845 79 171 0.0 0.0 0.00 0.00 0.00 91 1017.8
20260831224850 79 171 0.0 0.0 0.00 0.00 0.00 90 1017.9
20260831224543 78 171 0.0 0.0 0.00 0.00 0.00 90 1016.7
20260831224342 79 171 0.0 0.0 0.00 0.00 0.00 90 1018.0
20260831223854 79 171 0.0 0.0 0.00 0.00 0.00 90 1017.9
20260831223346 79 171 0.0 0.0 0.00 0.00 0.00 90 1017.9
20260831223040 79 171 0.0 0.0 0.00 0.00 0.00 90 1016.6
20260831222839 79 171 0.0 0.0 0.00 0.00 0.00 90 1017.9
20260831222352 79 171 0.0 0.0 0.00 0.00 0.00 90 1017.9
20260831221845 79 171 0.0 0.0 0.00 0.00 0.00 90 1018.0
20260831221548 79 171 0.0 0.0 0.00 0.00 0.00 89 1016.8
20260831221341 79 171 0.0 0.0 0.00 0.00 0.00 88 1018.0
20260831220849 79 171 0.0 0.0 0.00 0.00 0.00 89 1018.1
20260831220345 79 171 0.0 0.0 0.00 0.00 0.00 89 1018.1
20260831220036 79 171 0.0 0.0 0.00 0.00 0.00 89 1016.9
20260831215836 79 171 0.0 0.0 0.00 0.00 0.00 89 1018.1
20260831215409 79 171 0.0 0.0 0.00 0.00 0.00 87 1018.1
20260831214901 79 171 0.0 0.0 0.00 0.00 0.00 87 1018.1
20260831214553 79 171 0.0 0.0 0.00 0.00 0.00 87 1016.9
20260831214353 79 171 0.0 0.0 0.00 0.00 0.00 87 1018.2
20260831213845 80 171 0.0 0.0 0.00 0.00 0.00 87 1018.4
20260831213358 80 171 0.0 0.0 0.00 0.00 0.00 87 1018.3
20260831213055 79 171 0.0 0.0 0.00 0.00 0.00 86 1017.1
20260831212850 80 171 0.0 0.0 0.00 0.00 0.00 86 1018.3
20260831212340 81 171 0.0 0.0 0.00 0.00 0.00 83 1018.4
20260831211913 81 171 0.0 2.0 0.00 0.00 0.00 81 1018.3
20260831211506 80 171 0.0 2.0 0.00 0.00 0.00 80 1017.1
20260831211404 81 171 0.0 2.0 0.00 0.00 0.00 80 1018.3
20260831210836 80 171 0.0 1.0 0.00 0.00 0.00 82 1018.3
20260831210351 80 171 0.0 0.0 0.00 0.00 0.00 82 1018.3
20260831210041 80 171 0.0 0.0 0.00 0.00 0.00 83 1017.1
20260831205840 80 171 0.0 0.0 0.00 0.00 0.00 83 1018.4
20260831205414 81 171 0.0 0.0 0.00 0.00 0.00 82 1018.4
20260831204845 81 171 0.0 0.0 0.00 0.00 0.00 81 1018.4
20260831204539 80 171 0.0 0.0 0.00 0.00 0.00 81 1017.2
20260831204338 80 171 0.0 0.0 0.00 0.00 0.00 81 1018.5
20260831203851 80 171 0.0 0.0 0.00 0.00 0.00 84 1018.5
20260831203343 80 171 0.0 0.0 0.00 0.00 0.00 83 1018.6
20260831203041 80 171 0.0 0.0 0.00 0.00 0.00 82 1017.3
20260831202836 80 171 0.0 1.0 0.00 0.00 0.00 82 1018.6
20260831202349 80 171 0.0 1.0 0.00 0.00 0.00 82 1018.7
20260831201842 80 171 0.0 1.0 0.00 0.00 0.00 83 1018.8
20260831201557 79 171 0.0 0.0 0.00 0.00 0.00 85 1017.5
20260831201355 80 171 0.0 1.0 0.00 0.00 0.00 85 1018.8
20260831200847 80 171 0.0 1.0 0.00 0.00 0.00 83 1018.8
20260831200341 80 171 0.0 2.0 0.00 0.00 0.00 86 1018.9
20260831200051 79 171 0.0 2.0 0.00 0.00 0.00 86 1017.6
20260831195850 80 171 0.0 2.0 0.00 0.00 0.00 86 1018.8
20260831195343 79 171 0.0 0.0 0.00 0.00 0.00 87 1018.8
20260831194855 79 171 0.0 0.0 0.00 0.00 0.00 88 1018.9
20260831194624 78 171 0.0 0.0 0.00 0.00 0.00 88 1017.6
20260831194348 79 171 0.0 0.0 0.00 0.00 0.00 87 1018.9
20260831193900 79 171 0.0 0.0 0.00 0.00 0.00 86 1019.0
20260831193352 79 171 0.0 0.0 0.00 0.00 0.00 86 1019.0
20260831193044 79 171 0.0 0.0 0.00 0.00 0.00 85 1017.7
20260831192943 79 171 0.0 0.0 0.00 0.00 0.00 85 1019.0
20260831192350 80 171 0.0 0.0 0.00 0.00 0.00 83 1019.1
20260831191842 81 171 0.0 1.0 0.00 0.00 0.00 79 1019.1
20260831191556 80 171 0.0 2.0 0.00 0.00 0.00 79 1017.9
20260831190907 81 171 0.0 2.0 0.00 0.00 0.00 78 1019.2